Location: Anumalkud?ru
(16.4847°N, 80.6636°E)
Time: 10:32:10
(UTC+00:00)

Meteor 1-11 Rocket - Pass Details

Date: 11 April 2026
Orbit: 830 x 914 km, 81.2° (Epoch: 20 May)

Event Time Altitude Azimuth Distance (km) Brightness Sun altitude
Rises 22:57:09 0° 354° (N) 3,521 7.1 -21.3°
Reaches altitude 10° 22:59:37 10° 354° (N) 2,570 6.3 -20.7°
Maximum altitude 23:05:30 88° 265° (W) 889 3.7 -19.3°
Drops below altitude 10° 23:11:14 10° 176° (S) 2,512 6.1 -18.0°
Sets 23:13:38 0° 176° (S) 3,436 6.8 -17.5°
